Flag for Canada

Past Weather in Kirkland Lake, Ontario, Canada — Yesterday and Last 2 Weeks

Currently: 27 °F. Overcast. (Weather station: Earlton, Canada). See more current weather

Past Weather in Kirkland Lake — Graph

°F

Kirkland Lake Temperature Yesterday

Maximum temperature yesterday: 36 °F (at 2:00 pm)
Minimum temperature yesterday: 28 °F (at 8:00 am)
Average temperature yesterday: 33 °F

High & Low Weather Summary for the Past Weeks

 TemperatureHumidityPressure
High46 °F (Nov 19, 2:00 pm)100% (Nov 15, 3:00 pm)30.56 "Hg (Nov 15, 3:00 pm)
Low9 °F (Nov 24, 4:34 am)54% (Nov 18, 3:00 pm)28.96 "Hg (Nov 15, 8:37 pm)
Average28 °F85%29.99 "Hg
* Reported Nov 15 1:00 pm — Nov 30 1:00 pm, Kirkland Lake. Weather by CustomWeather, © 2020

Note: Actual official high and low records may vary slightly from our data, if they occured in-between our weather recording intervals... More about our weather records

Kirkland Lake Weather History for the Previous 24 Hours

Scroll right to see more
 ConditionsComfort  
Time TempWeatherWind HumidityBarometerVisibility
1:00 pm
Mon, Nov 30
27 °FOvercast.17 mph80%29.90 "Hg9 mi
12:27 pm27 °FOvercast.21 mph80%29.91 "Hg9 mi
12:00 pm25 °FLight snow. Overcast.22 mph86%29.91 "Hg9 mi
11:36 am27 °FLight snow. Overcast.22 mph80%29.91 "Hg9 mi
11:00 am27 °FOvercast.23 mph80%29.91 "Hg9 mi
10:16 am27 °FOvercast.17 mph86%29.92 "Hg9 mi
9:41 am27 °FLight snow. Mostly cloudy.20 mph93%29.90 "Hg9 mi
9:32 am28 °FOvercast.15 mph86%29.90 "Hg9 mi
9:18 am28 °FLight snow. Overcast.18 mph86%29.90 "Hg9 mi
8:59 am28 °FLight snow. Mostly cloudy.18 mph86%29.89 "Hg9 mi
8:00 am28 °FOvercast.16 mph93%29.87 "Hg9 mi
7:33 am30 °FMostly cloudy.14 mph93%29.86 "Hg9 mi
7:08 am30 °FOvercast.17 mph93%29.85 "Hg9 mi
6:22 am32 °FOvercast.17 mph93%29.83 "Hg9 mi
6:15 am32 °FOvercast.17 mph93%29.83 "Hg7 mi
5:58 am32 °FLow clouds.14 mph100%29.82 "Hg7 mi
5:00 am34 °FLow clouds.10 mph100%29.81 "Hg9 mi
4:37 am34 °FFog.9 mph100%29.82 "Hg6 mi
4:25 am34 °FLight rain. Fog.9 mph100%29.81 "Hg3 mi
4:17 am34 °FLight rain. Fog.8 mph100%29.81 "Hg1 mi
3:36 am34 °FFog.7 mph100%29.80 "Hg2 mi
3:10 am34 °FFog.No wind100%29.78 "Hg1 mi
2:00 am34 °FFog.2 mph100%29.80 "Hg2 mi
1:31 am34 °FFog.2 mph100%29.80 "Hg1 mi
1:00 am34 °FFog.No wind100%29.80 "Hg1 mi
12:21 am36 °FFog.2 mph100%29.80 "Hg1 mi
12:17 am36 °FFog.No wind100%29.80 "Hg2 mi
11:58 pm
Sun, Nov 29
36 °FFog.2 mph100%29.81 "Hg5 mi
11:28 pm34 °FFog.No wind100%29.81 "Hg3 mi
11:00 pm34 °FFog.6 mph100%29.81 "Hg2 mi
10:57 pm34 °FFog.6 mph100%29.81 "Hg2 mi
10:20 pm36 °FLight rain. Fog.5 mph93%29.81 "Hg3 mi
9:29 pm36 °FMostly cloudy.6 mph100%29.82 "Hg9 mi
9:10 pm34 °FMostly cloudy.2 mph100%29.83 "Hg9 mi
8:09 pm34 °FMostly cloudy.5 mph100%29.83 "Hg9 mi
7:00 pm34 °FMostly cloudy.2 mph100%29.86 "Hg9 mi
6:04 pm34 °FMostly cloudy.No wind93%29.86 "Hg9 mi
5:00 pm34 °FMostly cloudy.8 mph100%29.85 "Hg9 mi
4:13 pm34 °FMore clouds than sun.8 mph93%29.85 "Hg9 mi
4:00 pm36 °FMostly cloudy.8 mph87%29.85 "Hg9 mi
3:00 pm36 °FOvercast.7 mph87%29.86 "Hg9 mi
Weather by CustomWeather, © 2020

See weather overview